Tracking 19847 objects as of 16-Sep-2019
HD Live streaming from Space Station
objects crossing your sky now

COSMOS 1181

Track COSMOS 1181 now!
10-day predictions
COSMOS 1181 is classified as:


NORAD ID: 11803
Int'l Code: 1980-039A
Perigee: 977.1 km
Apogee: 1,007.8 km
Inclination: 82.9 °
Period: 104.8 minutes
Semi major axis: 7363 km
RCS: 3.1344 m2 (large)
Launch date: May 20, 1980
Source: Commonwealth of Independent States (former USSR) (CIS)
Launch site: PLESETSK MISSILE AND SPACE COMPLEX (PKMTR)
aabbcc
Your satellite tracking list
Your tracking list is empty




NASA's NSSDC Master Catalog

Two Line Element Set (TLE):
1 11803U 80039A   19258.93984225 +.00000007 +00000-0 -79871-5 0  9995
2 11803 082.9419 239.7382 0020878 268.8728 146.3687 13.73983314971271
Source of the keplerian elements: AFSPC